カタログに戻る

SL-8 DEB

運用中LEO
NORAD 21170·DEBRIS·🇷🇺 Russia

打ち上げ Feb 12, 1991 から Plesetsk Cosmodrome

Loading…

次のパス (今後24時間)

TLE

最新Source: Space-Track

元期: Sep 14, 2026, 14:15 UTC

1 21170U 91009AH  26257.59395052  .00000191  00000-0  20949-2 0  9997
2 21170  74.1159   2.4053 0151906 322.1712  50.6034 12.12969933573158

AllMySatでSL-8 DEBをリアルタイム追跡

Download on the App Store